This is the latest recevied weather packets stored in our database for station/object WS2Z. If no packets are shown the sender has not sent any weather packets the latest 10 day(s).
| Time | Temp. | Humidity | Pressure | Rain* | Wind** | Luminosity | Snow |
|---|---|---|---|---|---|---|---|
| 1777629298 | 19.44° C | 96% | 1012.5 hPa | 0 mm | - | 0 W/m² | - |
| 1777628994 | 19.44° C | 96% | 1012.5 hPa | 0 mm | - | 0 W/m² | - |
| 1777628691 | 18.89° C | 96% | 1012.4 hPa | 0 mm | - | 0 W/m² | - |
| 1777628387 | 18.89° C | 96% | 1012.5 hPa | 0 mm | - | 0 W/m² | - |
| 1777628083 | 18.89° C | 95% | 1012.3 hPa | 0 mm | - | 0 W/m² | - |
| 1777627778 | 18.89° C | 95% | 1012.1 hPa | 0 mm | - | 0 W/m² | - |
| 1777627478 | 18.89° C | 95% | 1012.2 hPa | 0 mm | - | 0 W/m² | - |
| 1777627173 | 18.89° C | 95% | 1012.2 hPa | 0 mm | - | 0 W/m² | - |
| 1777626871 | 18.33° C | 95% | 1012.5 hPa | 0 mm | - | 0 W/m² | - |
| 1777626567 | 18.33° C | 95% | 1012.3 hPa | 0 mm | - | 0 W/m² | - |
| 1777626261 | 18.89° C | 95% | 1012.3 hPa | 0 mm | - | 0 W/m² | - |
| 1777625960 | 18.89° C | 95% | 1012.3 hPa | 0 mm | - | 0 W/m² | - |
| 1777625656 | 19.44° C | 95% | 1012.3 hPa | 0 mm | - | 0 W/m² | - |
| 1777625352 | 19.44° C | 95% | 1012 hPa | 0 mm | - | 0 W/m² | - |
| 1777625049 | 19.44° C | 95% | 1012.1 hPa | 0 mm | - | 0 W/m² | - |
| 1777624745 | 20° C | 95% | 1012.2 hPa | 0 mm | - | 0 W/m² | - |
| 1777624441 | 20° C | 95% | 1012.1 hPa | 0 mm | - | 0 W/m² | - |
| 1777624138 | 20° C | 95% | 1012.2 hPa | 0 mm | - | 0 W/m² | - |
| 1777623834 | 20° C | 95% | 1012 hPa | 0 mm | - | 0 W/m² | - |
| 1777623531 | 20° C | 95% | 1012 hPa | 0 mm | - | 0 W/m² | - |
| 1777623229 | 20° C | 94% | 1012.1 hPa | 0 mm | - | 0 W/m² | - |
| 1777622926 | 20° C | 94% | 1012 hPa | 0 mm | - | 0 W/m² | - |
| 1777622622 | 20° C | 94% | 1012.2 hPa | 0 mm | - | 0 W/m² | - |
| 1777622318 | 20° C | 94% | 1012.3 hPa | 0 mm | - | 0 W/m² | - |
| 1777622015 | 20.56° C | 94% | 1012.3 hPa | 0 mm | - | 0 W/m² | - |
* Rain latest hour (hover to see other rain measurements)
** Current wind speed in m/s (hover to see current wind gust speed)